Location: Casabianda
(42.0947°N, 9.5031°E)
Time: 16:58:51
(UTC+00:00)

Daily predictions for brighter satellites

Satellite Brightness Start Highest point End
(mag) Time Altitude Azimuth Time Altitude Azimuth Time Altitude Azimuth
Unknown 4.0 17:00:37 10° WSW 17:04:44 64° NNW 17:08:52 10° NE
COBE Rocket 4.1 17:01:13 10° NNE 17:06:19 56° E 17:11:18 10° S
BREEZE-M DEB (TANK) 4.1 17:02:53 10° NW 17:06:53 41° NNE 17:15:53 10° E
Unknown 4.0 17:03:38 10° WSW 17:07:45 66° NW 17:11:53 10° NE
Cosmos 1606 Rocket 3.8 17:04:52 10° SSE 17:09:05 47° E 17:13:18 10° NNE
Unknown 4.0 17:06:59 10° WSW 17:11:05 63° NW 17:15:13 10° NE
Unknown 4.1 17:08:44 10° WSW 17:12:50 61° NNW 17:16:57 10° NE
Cosmos 2263 Rocket 4.2 17:09:10 10° WSW 17:14:02 29° NW 17:18:55 10° N
Unknown 4.1 17:10:21 10° WSW 17:14:25 59° NNW 17:18:32 10° NE
CSL-04 Rocket 4.1 17:09:55 10° SE 17:15:04 42° ENE 17:20:13 10° N
Meteor 2-12 Rocket 4.5 17:09:02 10° N 17:15:09 63° E 17:21:14 10° SSE
Unknown 4.1 17:12:05 10° WSW 17:16:09 58° NNW 17:20:15 10° NE
SMAP 4.2 17:12:39 10° S 17:17:09 50° W 17:21:41 10° NNW
Cosmos 2285 Rocket 4.1 17:11:17 10° NNW 17:17:43 65° ENE 17:24:02 10° SSE
Cosmos 1758 Rocket 3.5 17:14:30 10° N 17:18:58 74° E 17:23:25 10° SSE
Unknown 4.4 17:16:12 10° WSW 17:20:10 48° NNW 17:24:09 10° NE
Envisat 3.0 17:16:01 10° SSE 17:21:04 73° ENE 17:26:09 10° N
SL-4 R/B 2.0 17:18:56 10° NW 17:22:46 53° NNE 17:26:07 11° ESE
Unknown 4.3 17:18:45 10° WSW 17:22:47 52° NNW 17:26:51 10° NE
Unknown 4.4 17:20:26 10° WSW 17:24:27 50° NNW 17:28:31 10° NE
NOAA 12 4.3 17:19:13 10° S 17:24:28 80° WSW 17:29:48 10° NNW
Unknown 4.4 17:22:07 10° WSW 17:26:09 49° NNW 17:30:11 10° NE
Cosmos 1271 Rocket 2.8 17:22:16 10° N 17:26:11 58° ENE 17:30:07 10° SSE
EO 1 Delta rocket 4.4 17:23:04 10° SE 17:27:16 34° ENE 17:31:31 10° N
Unknown 4.4 17:23:45 10° WSW 17:27:46 48° NNW 17:31:48 10° NE
Unknown 4.5 17:25:27 10° WSW 17:29:27 47° NNW 17:33:28 10° NE
Cosmos 1833 Rocket 4.2 17:27:32 10° N 17:31:16 18° NE 17:33:53 13° E
SKYMED 2 3.5 17:29:01 10° NNE 17:33:24 84° ESE 17:37:43 10° SSW
Cosmos 1626 3.6 17:30:42 10° NNW 17:34:14 42° W 17:37:44 10° SSW
Cosmos 1356 4.0 17:32:59 10° SSE 17:36:07 34° E 17:39:16 10° NNE
YAOGAN 1 2.6 17:32:40 10° SSE 17:36:54 58° ENE 17:41:10 10° N
Cosmos 1953 2.8 17:33:30 10° SSW 17:37:32 66° W 17:41:36 10° N
Cosmos 1726 2.4 17:35:59 10° SSE 17:39:27 43° E 17:42:56 10° NNE
Cosmos 1703 3.8 17:38:06 10° N 17:41:44 35° ENE 17:45:20 10° SE
CZ-4C R/B 3.4 17:38:39 10° NW 17:46:00 71° WSW 17:54:15 10° SSE
COSMOS 2406 3.6 17:42:07 10° NNW 17:47:38 44° ENE 17:52:46 12° SE
Cosmos 2082 Rocket 3.7 17:45:03 10° N 17:48:48 17° NE 17:50:12 16° ENE
Cosmos 1354 Rocket 4.1 17:45:45 10° NNW 17:50:59 78° WSW 17:56:13 10° SSE
Cosmos 1726 Rocket 3.8 17:46:56 10° SSW 17:51:20 73° W 17:55:44 10° N
ASTEX 1 3.6 17:49:12 10° N 17:54:09 78° W 17:59:07 10° SSW
CSL-04 Debris 4.2 17:49:44 10° SSE 17:55:11 90° WSW 18:00:41 10° NNW
Meteor 1-11 4.3 17:52:47 10° N 17:58:27 55° ENE 18:04:06 10° SSE
Cosmos 1242 Rocket 2.4 17:55:40 10° N 17:59:21 74° E 18:03:01 10° SSE
Shenzhou-11 Module 1.6 17:57:38 10° W 18:00:24 88° N 18:00:58 52° ENE
Cosmos 2058 Rocket 3.0 17:56:52 10° S 18:01:14 88° W 18:05:37 10° N
Cosmos 968 Rocket 4.3 17:56:13 10° NNW 18:01:23 55° WSW 18:06:29 10° S
OAO 2 Rocket 4.3 17:56:57 10° WSW 18:01:51 39° S 18:04:44 22° SE
Cosmos 1939 Rocket 2.9 17:58:26 10° SSE 18:02:16 53° ENE 18:06:12 10° N
USA 238 DEB 4.4 17:57:22 10° S 18:02:57 29° ESE 18:05:37 22° ENE
USA 238 4.4 17:57:30 10° SSE 18:03:04 29° ESE 18:05:38 23° ENE
Abrixas rocket 3.5 18:00:46 10° SSW 18:02:55 23° SSE 18:02:55 23° SSE
Ariane Rocket 3.1 17:58:45 10° SSE 18:03:40 53° ENE 18:08:38 10° N
Cosmos 2228 4.1 18:00:25 10° SSW 18:04:39 48° WNW 18:08:54 10° N
OAO 3 Rocket 4.2 18:00:53 10° WSW 18:05:20 34° S 18:07:26 24° SE
Cosmos 1605 Rocket 3.9 18:03:50 10° N 18:10:01 66° E 18:16:06 10° SSE
Lacrosse 5 rocket 1.3 18:07:12 10° NW 18:11:00 74° SW 18:13:01 27° SSE
Cosmos 482 Debris 3.9 18:06:49 10° NW 18:11:28 61° NNE 18:12:02 50° ENE
Cosmos 1844 Rocket 3.9 18:07:00 10° SW 18:12:20 42° WNW 18:17:43 10° NNE
Meteor 2-10 4.0 18:08:50 10° SSW 18:13:58 82° W 18:19:02 10° N
Cosmos 1727 Rocket 4.1 18:08:22 10° SSE 18:14:16 49° E 18:20:11 10° NNE
USA 234 4.1 18:13:46 26° ESE 18:14:55 28° SE 18:20:20 10° S
Cosmos 921 Rocket 3.9 18:12:05 10° SSW 18:16:29 51° WNW 18:20:53 10° N
Cosmos 1908 3.2 18:15:08 10° S 18:19:02 88° W 18:22:58 10° N
CZ-4 R/B 3.3 18:17:35 10° SSW 18:21:18 33° W 18:25:07 10° NNW
Cosmos 1328 4.3 18:20:22 10° NNW 18:24:18 59° W 18:28:11 10° S
Cosmos 1934 Rocket 4.5 18:18:23 10° NNW 18:24:38 64° W 18:30:53 10° S
Cosmos 1777 Rocket 3.9 18:20:24 10° NNW 18:25:36 65° ENE 18:27:47 34° SE
H-2A R/B 3.1 18:28:31 28° NE 18:28:31 28° NE 18:32:17 10° N
Cosmos 2278 Rocket 2.1 18:22:37 10° SSW 18:28:13 67° ESE 18:33:51 10° NNE
NOSS 3-2 (A) 4.1 18:24:58 10° S 18:28:51 31° SE 18:28:51 31° SE
Cosmos 839 Rocket 4.1 18:24:52 10° NNW 18:31:07 90° WSW 18:36:18 20° SSE
Cosmos 2173 Rocket 4.4 18:26:07 10° N 18:31:54 37° ENE 18:31:57 37° ENE
HJ-1C 3.8 18:33:05 55° N 18:33:05 55° N 18:35:47 10° NNW
Lacrosse 5 3.1 18:31:25 10° NNW 18:35:38 26° NNE 18:35:56 26° NNE
ATLAS 5 CENTAUR R/B 4.2 18:41:06 10° WNW 18:43:59 17° NNW 18:47:03 10° N
Cosmos 2100 Rocket 4.0 18:43:27 10° N 18:49:33 55° E 18:49:41 55° E
SL-4 R/B 3.8 18:59:09 10° W 19:01:45 22° WSW 19:01:45 22° WSW
Gbstr 26 Del rocket 4.3 19:05:55 10° NW 19:12:22 60° NNE 19:12:54 58° NE
ARGOS 3.9 19:15:47 43° N 19:15:47 43° N 19:19:24 10° N
Cosmos 1833 Rocket 2.7 19:10:14 10° NNW 19:15:36 77° WNW 19:15:36 77° WNW
ADEOS Rocket 3.4 19:21:48 10° NNE 19:29:36 86° WNW 19:36:52 10° SSW
Cosmos 2082 Rocket 2.9 19:27:53 10° NNW 19:32:05 50° NNW 19:32:05 50° NNW
USA 238 DEB 4.1 19:46:52 10° SW 19:53:10 58° WNW 19:53:10 58° WNW
USA 238 4.1 19:46:58 10° SW 19:53:11 58° WNW 19:53:11 58° WNW
USA 234 4.2 20:01:11 37° WSW 20:01:11 37° WSW 20:04:53 10° SW
H-2A R/B 4.0 20:09:09 26° NW 20:09:09 26° NW 20:11:52 10° NNW
Cosmos 2278 Rocket 4.4 20:08:36 10° W 20:12:49 21° NW 20:16:57 10° N
Lacrosse 5 4.5 20:14:03 10° NW 20:15:08 17° NW 20:15:08 17° NW
